Home > Time Zones > World Clock > Weather > Iran > Ahvaz > Past weeks

Flag for Iran Weather past 2 weeks in Ahvaz, Iran

Now
81 °F

Sunny.


Feels Like: 80 °F
Forecast: 57 / 85 °F
Wind: No wind

Location: Ahwaz

Current Time: Mar 27, 2015 at 5:19:19 PM

Latest Report: Mar 27, 2015 at 5:00 PM


Visibility: 10 mi

Pressure: 29.95 "Hg

Humidity: 30%

Dew point: 46 °F

Location of AhvazLocation

Historic Weather in Ahvaz — Graph

°F

Ahvaz temperature yesterday

Maximum temperature yesterday: 81 °F (at 2:00 PM)
Minimum temperature yesterday: 61 °F (at 4:30 AM)
Average temperature yesterday: 71 °F

Past Weeks' High & Low Weather Summary

 TemperatureHumidityPressure
High86 °F (Mar 16, 3:30 PM)100% (Mar 19, 4:30 AM)30.12 "Hg (Mar 19, 4:30 AM)
Low48 °F (Mar 23, 5:30 AM)9% (Mar 12, 4:00 PM)29.80 "Hg (Mar 20, 2:30 AM)
Average70 °F61%29.96 "Hg
* Reported Mar 12 2:30 PM — Mar 27 3:30 PM, Ahvaz, Weather by CustomWeather, © 2015

Note: Actual official high and low records may vary slightly from our data, if they occured in-between our weather recording intervals... More about our weather records

Advertising

Ahvaz weather history for previous 24 hours

 ConditionsComfort  
Time TempWeatherWind HumidityBarometerVisibility
3:30 PM
Fri, Mar 27
79 °FSunny.5 mph34%29.95 "Hg10 mi
2:30 PM79 °FPassing clouds.No wind37%30.01 "HgN/A
1:55 PM79 °FPassing clouds.5 mph34%30.01 "HgN/A
1:30 PM77 °FPassing clouds.5 mph42%30.04 "HgN/A
12:55 PM77 °FPassing clouds.No wind51%30.04 "HgN/A
12:30 PM75 °FScattered clouds.No wind57%30.04 "HgN/A
11:55 AM75 °FPassing clouds.No wind57%30.04 "HgN/A
11:30 AM73 °FSunny.No wind61%30.04 "Hg4 mi
10:55 AM72 °FSunny.No wind69%30.04 "Hg4 mi
10:30 AM70 °FSunny.No wind73%30.04 "Hg4 mi
9:55 AM68 °FSunny.5 mph78%30.04 "Hg4 mi
9:30 AM68 °FSunny.5 mph73%30.04 "Hg4 mi
8:55 AM64 °FSunny.No wind78%30.04 "Hg3 mi
8:30 AM61 °FFog.No wind88%30.04 "Hg2 mi
7:30 AM61 °FFog.No wind88%30.01 "Hg2 mi
6:30 AM61 °FClear.5 mph83%29.98 "Hg5 mi
5:30 AM61 °FClear.5 mph72%29.98 "Hg10 mi
4:30 AM63 °FClear.5 mph68%29.95 "Hg10 mi
3:30 AM64 °FClear.No wind78%29.98 "Hg5 mi
2:30 AM66 °FClear.5 mph73%29.98 "Hg5 mi
1:30 AM64 °FPassing clouds.2 mph78%29.98 "Hg5 mi
1:00 AM66 °FPassing clouds.2 mph68%29.98 "HgN/A
12:30 AM68 °FPassing clouds.2 mph64%29.98 "HgN/A
12:00 AM68 °FPassing clouds.No wind69%29.98 "HgN/A
11:30 PM
Thu, Mar 26
68 °FPassing clouds.No wind64%29.98 "HgN/A
11:00 PM68 °FClear.2 mph69%29.95 "Hg10 mi
10:30 PM66 °FClear.No wind73%29.95 "Hg10 mi
10:00 PM66 °FClear.No wind64%29.95 "Hg10 mi
9:30 PM68 °FPassing clouds.No wind60%29.95 "Hg5 mi
9:00 PM70 °FClear.No wind60%29.95 "Hg5 mi
8:30 PM72 °FClear.2 mph57%29.95 "Hg5 mi
8:00 PM73 °FBroken clouds.5 mph57%29.95 "Hg5 mi
7:30 PM73 °FBroken clouds.5 mph57%29.95 "Hg5 mi
7:00 PM75 °FBroken clouds.7 mph54%29.95 "HgN/A
6:30 PM75 °FBroken clouds.5 mph54%29.95 "HgN/A
6:00 PM75 °FMore clouds than sun.5 mph54%29.95 "HgN/A
5:30 PM77 °FMore clouds than sun.5 mph51%29.95 "HgN/A
5:00 PM77 °FMore clouds than sun.7 mph54%29.95 "HgN/A
Weather by CustomWeather, © 2015

See weather overviewHow to use our weather pages